Powrót do katalogu

COSMOS 886 DEB

AktywnyUNKNOWN
NORAD 9797·DEBRIS·🇷🇺 Russia

Wystrzelony Dec 27, 1976 z Baikonur Cosmodrome

Loading…

Następne Przeloty (najbliższe 24 godziny)

TLE

ŚwieżeSource: Space-Track

Epoka: Sep 13, 2026, 14:59 UTC

1 09797U 76126X   26256.62467236  .00000544  00000-0  44160-3 0  9992
2 09797  65.8203 356.9993 0897491 146.0068 220.1934 12.81934597281297

Śledź COSMOS 886 DEB w czasie rzeczywistym z AllMySat

Download on the App Store